Tracking 25703 objects as of 3-Jul-2022
HD Live streaming from Space Station
objects crossing your sky now

STARLINK-1923

Track STARLINK-1923 now!
10-day predictions
STARLINK-1923 is classified as:


NORAD ID: 46754
Int'l Code: 2020-074R
Perigee: 553.5 km
Apogee: 555.2 km
Inclination: 53.1 °
Period: 95.6 minutes
Semi major axis: 6925 km
RCS: Unknown
Launch date: October 24, 2020
Source: United States (US)
Launch site: AIR FORCE EASTERN TEST RANGE (AFETR)
aabbcc
Your satellite tracking list
Your tracking list is empty




NASA's NSSDC Master Catalog

Two Line Element Set (TLE):
1 46754U 20074R   22183.49349039  .00001400  00000-0  11287-3 0  9993
2 46754  53.0543 244.9209 0001289  73.9696 286.1435 15.06401683 93777
Source of the keplerian elements: AFSPC